Location: Jackson Park
(37.2862°N, 79.9123°W)
Time: 21:01:57
(UTC+00:00)

Transit 4A - Pass Details

Date: 16 May 2026
Orbit: 860 x 980 km, 66.8° (Epoch: 9 June)

Event Time Altitude Azimuth Distance (km) Brightness Sun altitude
Rises 23:03:09 0° 322° (NW) 3,687 11.9 14.0°
Reaches altitude 10° 23:05:58 10° 313° (NW) 2,734 11.6 13.5°
Maximum altitude 23:11:34 33° 252° (WSW) 1,576 10.2 12.4°
Drops below altitude 10° 23:17:04 10° 191° (S) 2,683 10.3 11.3°
Sets 23:19:50 0° 182° (S) 3,609 10.8 10.8°
